This is the latest recevied weather packets stored in our database for station/object IZ6UQU-13. If no packets are shown the sender has not sent any weather packets the latest 1 day(s).
| Time | Temp. | Humidity | Pressure | Rain* | Wind** | Luminosity | Snow |
|---|---|---|---|---|---|---|---|
| 1778027701 | 11.67° C | 90% | 955.9 hPa | 0 mm | - | - | - |
| 1778027101 | 11.11° C | 91% | 955.9 hPa | 0 mm | - | - | - |
| 1778024710 | 11.67° C | 90% | 956.1 hPa | 0 mm | - | - | - |
| 1778024110 | 11.67° C | 91% | 956 hPa | 0 mm | - | - | - |
| 1778023811 | 11.67° C | 90% | 956.1 hPa | 0 mm | - | - | - |
| 1778022911 | 11.67° C | 90% | 956.3 hPa | 0 mm | - | - | - |
| 1778022611 | 11.67° C | 90% | 956.4 hPa | 0 mm | - | - | - |
| 1778022013 | 11.67° C | 90% | 956.5 hPa | 0 mm | - | - | - |
| 1778021711 | 11.67° C | 90% | 956.6 hPa | 0 mm | - | - | - |
| 1778021111 | 11.67° C | 89% | 956.6 hPa | 0 mm | - | - | - |
| 1778020511 | 11.67° C | 90% | 956.8 hPa | 0 mm | - | - | - |
| 1778020211 | 11.67° C | 91% | 956.7 hPa | 0 mm | - | - | - |
| 1778019311 | 11.67° C | 90% | 956.8 hPa | 0 mm | - | - | - |
| 1778018411 | 11.67° C | 91% | 956.9 hPa | 0 mm | - | - | - |
| 1778012111 | 11.11° C | 89% | 957.2 hPa | 0 mm | - | - | - |
| 1778006110 | 12.22° C | 88% | 956.4 hPa | 0 mm | - | - | - |
| 1778004310 | 13.33° C | 84% | 956.5 hPa | 0 mm | - | - | - |
| 1778003710 | 13.33° C | 83% | 956.5 hPa | 0 mm | - | - | - |
| 1778002810 | 13.89° C | 83% | 956.5 hPa | 0 mm | - | - | - |
| 1778002510 | 13.89° C | 83% | 956.4 hPa | 0 mm | - | - | - |
| 1778001910 | 13.89° C | 81% | 956.3 hPa | 0 mm | - | - | - |
| 1778001610 | 13.89° C | 81% | 956.3 hPa | 0 mm | - | - | - |
| 1778001310 | 14.44° C | 82% | 956.3 hPa | 0 mm | - | - | - |
| 1778000710 | 14.44° C | 82% | 956.4 hPa | 0 mm | - | - | - |
| 1778000410 | 14.44° C | 82% | 956.4 hPa | 0 mm | - | - | - |
* Rain latest hour (hover to see other rain measurements)
** Current wind speed in m/s (hover to see current wind gust speed)